GW3183 Weather Reports


time (UTC)temp
C
wind
direction
speed
KPH
gust
KPH
rain 1hr
cm
rain 24hr
cm
rain mn
cm
humidity
%
barometer
mb
20260506025819 18 167 1.6 3.2 0.00 0.00 0.00 79 1007.2
20260506025315 18 162 1.6 8.0 0.00 0.00 0.00 78 1007.0
20260506024813 18 178 1.6 4.8 0.00 0.00 0.00 77 1006.8
20260506024309 19 333 3.2 11.3 0.00 0.00 0.00 77 1006.8
20260506023805 19 241 1.6 4.8 0.00 0.00 0.00 76 1006.6
20260506023303 19 170 3.2 3.2 0.00 0.00 0.00 76 1006.6
20260506022759 20 240 3.2 9.7 0.00 0.00 0.00 75 1006.5
20260506022257 20 252 1.6 9.7 0.00 0.00 0.00 75 1006.5
20260506021755 20 212 1.6 4.8 0.00 0.00 0.00 75 1006.4
20260506021252 20 176 0.0 3.2 0.00 0.00 0.00 75 1006.2
20260506020748 20 196 1.6 8.0 0.00 0.00 0.00 75 1006.0
20260506020247 20 185 1.6 3.2 0.00 0.00 0.00 74 1005.8
20260506015744 20 221 1.6 1.6 0.00 0.00 0.00 75 1006.0
20260506015241 20 178 0.0 8.0 0.00 0.00 0.00 75 1005.7
20260506014738 20 193 3.2 8.0 0.00 0.00 0.00 75 1005.5
20260506014234 20 102 0.0 3.2 0.00 0.00 0.00 74 1005.7
20260506013732 20 167 1.6 8.0 0.00 0.00 0.00 74 1005.5
20260506013229 20 162 1.6 4.8 0.00 0.00 0.00 74 1005.5
20260506012725 20 241 1.6 4.8 0.00 0.00 0.00 74 1005.3
20260506012222 20 165 0.0 1.6 0.00 0.00 0.00 73 1005.2
20260506011719 20 161 0.0 3.2 0.00 0.00 0.00 73 1004.7
20260506011215 20 188 1.6 4.8 0.00 0.00 0.00 72 1004.9
20260506010714 21 183 3.2 3.2 0.00 0.00 0.00 72 1004.8
20260506010211 21 337 3.2 8.0 0.00 0.00 0.00 72 1004.7
20260506005708 21 8 3.2 4.8 0.00 0.00 0.00 72 1004.5
20260506005205 21 124 1.6 3.2 0.00 0.00 0.00 71 1004.4
20260506004701 21 354 3.2 3.2 0.00 0.00 0.00 71 1004.5
20260506004159 21 167 4.8 4.8 0.00 0.00 0.00 71 1004.3
20260506003654 22 290 3.2 4.8 0.00 0.00 0.00 71 1004.3
20260506003151 22 55 3.2 4.8 0.00 0.00 0.00 71 1003.6
20260506002647 22 148 3.2 9.7 0.00 0.00 0.00 70 1004.1
20260506002143 22 142 1.6 3.2 0.00 0.00 0.00 70 1003.9
20260506001638 23 156 1.6 4.8 0.00 0.00 0.00 70 1003.9
20260506001137 23 168 1.6 4.8 0.00 0.00 0.00 68 1003.7
20260506000633 23 179 1.6 8.0 0.00 0.00 0.00 67 1003.8
20260506000131 23 276 1.6 3.2 0.00 0.00 0.00 67 1003.7
20260505235629 23 276 3.2 8.0 0.00 0.00 0.00 67 1003.7
20260505235126 24 189 3.2 4.8 0.00 0.00 0.00 66 1003.6
20260505234622 25 206 3.2 9.7 0.00 0.00 0.00 65 1003.6
20260505234119 25 145 3.2 9.7 0.00 0.00 0.00 66 1003.7
20260505233617 25 203 3.2 4.8 0.00 0.00 0.00 64 1003.6
20260505233114 25 183 3.2 4.8 0.00 0.00 0.00 63 1003.5
20260505232612 25 247 0.0 9.7 0.00 0.00 0.00 63 1003.4
20260505232109 26 161 0.0 3.2 0.00 0.00 0.00 63 1003.2
20260505231606 26 193 1.6 9.7 0.00 0.00 0.00 62 1003.5
20260505231104 26 175 4.8 12.9 0.00 0.00 0.00 61 1003.3
20260505230602 27 291 1.6 4.8 0.00 0.00 0.00 61 1003.3
20260505230058 27 202 0.0 1.6 0.00 0.00 0.00 60 1003.1
20260505225555 27 177 3.2 4.8 0.00 0.00 0.00 59 1003.1
20260505225050 27 180 0.0 9.7 0.00 0.00 0.00 58 1003.2
20260505224548 28 236 4.8 9.7 0.00 0.00 0.00 57 1003.0
20260505224045 28 204 0.0 3.2 0.00 0.00 0.00 57 1002.7
20260505223542 28 192 3.2 9.7 0.00 0.00 0.00 57 1002.7
20260505223038 28 238 1.6 12.9 0.00 0.00 0.00 57 1002.7
20260505222534 29 149 6.4 11.3 0.00 0.00 0.00 56 1002.7
20260505222031 30 304 6.4 9.7 0.00 0.00 0.00 54 1002.4
20260505221528 30 184 6.4 11.3 0.00 0.00 0.00 54 1002.4
20260505221024 30 198 3.2 8.0 0.00 0.00 0.00 54 1002.1
20260505220522 30 196 1.6 4.8 0.00 0.00 0.00 54 1002.3
20260505220020 31 256 1.6 8.0 0.00 0.00 0.00 50 1002.4
20260505215518 31 189 1.6 3.2 0.00 0.00 0.00 48 1002.3
20260505215015 31 158 0.0 8.0 0.00 0.00 0.00 48 1002.0
20260505214513 31 224 3.2 9.7 0.00 0.00 0.00 46 1002.4
20260505214009 31 199 1.6 8.0 0.00 0.00 0.00 45 1002.6
20260505213507 32 202 1.6 8.0 0.00 0.00 0.00 44 1002.3
20260505213004 33 221 6.4 11.3 0.00 0.00 0.00 42 1002.1
20260505212500 32 194 1.6 4.8 0.00 0.00 0.00 45 1002.3
20260505211957 32 284 3.2 9.7 0.00 0.00 0.00 44 1002.0
20260505211454 33 189 0.0 8.0 0.00 0.00 0.00 44 1002.4
20260505210950 33 310 4.8 9.7 0.00 0.00 0.00 44 1002.3
20260505210448 35 198 1.6 11.3 0.00 0.00 0.00 44 1002.4
20260505205944 35 212 4.8 8.0 0.00 0.00 0.00 47 1002.3
20260505205443 35 258 4.8 8.0 0.00 0.00 0.00 48 1002.1
20260505204939 36 276 1.6 8.0 0.00 0.00 0.00 46 1002.5
20260505204437 35 229 4.8 9.7 0.00 0.00 0.00 46 1002.5
20260505203934 35 273 1.6 8.0 0.00 0.00 0.00 47 1002.6
20260505203431 35 235 4.8 11.3 0.00 0.00 0.00 47 1002.5
20260505202927 35 280 3.2 11.3 0.00 0.00 0.00 48 1002.8
20260505202424 35 204 3.2 8.0 0.00 0.00 0.00 49 1002.5
20260505201920 35 335 3.2 8.0 0.00 0.00 0.00 47 1002.5
20260505201417 34 222 3.2 8.0 0.00 0.00 0.00 48 1002.6
20260505200915 35 259 3.2 8.0 0.00 0.00 0.00 50 1002.9
20260505200412 35 311 4.8 9.7 0.00 0.00 0.00 49 1003.0
20260505195908 34 282 4.8 11.3 0.00 0.00 0.00 49 1002.7
20260505195405 35 255 3.2 12.9 0.00 0.00 0.00 52 1002.8
20260505194902 34 272 6.4 9.7 0.00 0.00 0.00 51 1002.9
20260505194400 33 257 8.0 9.7 0.00 0.00 0.00 53 1002.8
20260505193855 33 256 4.8 8.0 0.00 0.00 0.00 54 1002.9
20260505193353 33 241 4.8 11.3 0.00 0.00 0.00 53 1003.1
20260505192850 33 263 4.8 11.3 0.00 0.00 0.00 53 1002.8
20260505192348 33 206 9.7 14.5 0.00 0.00 0.00 53 1003.0
20260505191845 33 228 3.2 8.0 0.00 0.00 0.00 57 1002.9
20260505191344 32 283 3.2 9.7 0.00 0.00 0.00 55 1002.6
20260505190840 33 214 4.8 8.0 0.00 0.00 0.00 57 1002.7
20260505190336 33 199 4.8 11.3 0.00 0.00 0.00 56 1003.0
20260505185832 32 244 3.2 4.8 0.00 0.00 0.00 58 1002.7
20260505185328 32 213 3.2 3.2 0.00 0.00 0.00 62 1002.8
20260505184825 32 306 4.8 11.3 0.00 0.00 0.00 57 1002.7
20260505184322 32 236 4.8 8.0 0.00 0.00 0.00 58 1002.9
20260505183819 31 278 4.8 8.0 0.00 0.00 0.00 61 1002.9
20260505183316 31 268 4.8 8.0 0.00 0.00 0.00 61 1002.8
20260505182812 31 241 1.6 9.7 0.00 0.00 0.00 61 1003.0
20260505182309 30 228 1.6 4.8 0.00 0.00 0.00 64 1003.1
20260505181806 30 158 4.8 11.3 0.00 0.00 0.00 64 1003.0
20260505181303 30 263 1.6 12.9 0.00 0.00 0.00 64 1002.9
20260505180800 30 84 4.8 8.0 0.00 0.00 0.00 63 1003.0
20260505180256 30 326 3.2 11.3 0.00 0.00 0.00 62 1003.1
20260505175753 30 260 3.2 4.8 0.00 0.00 0.00 62 1003.2
20260505175249 31 277 4.8 8.0 0.00 0.00 0.00 61 1003.2
20260505174746 31 286 4.8 9.7 0.00 0.00 0.00 63 1003.2
20260505174243 30 231 0.0 4.8 0.00 0.00 0.00 64 1002.9
20260505173739 30 240 3.2 9.7 0.00 0.00 0.00 64 1003.0
20260505173236 30 312 4.8 8.0 0.00 0.00 0.00 63 1002.7
20260505172733 30 249 4.8 8.0 0.00 0.00 0.00 64 1002.8
20260505172230 30 270 4.8 8.0 0.00 0.00 0.00 64 1002.7
20260505171729 30 243 6.4 9.7 0.00 0.00 0.00 63 1002.9
20260505171227 30 243 1.6 9.7 0.00 0.00 0.00 65 1003.0
20260505170723 30 22 8.0 12.9 0.00 0.00 0.00 64 1003.1
20260505170220 29 235 4.8 9.7 0.00 0.00 0.00 65 1003.2
20260505165716 29 200 4.8 9.7 0.00 0.00 0.00 64 1003.3
20260505165212 29 235 4.8 11.3 0.00 0.00 0.00 65 1003.2
20260505164707 28 294 1.6 8.0 0.00 0.00 0.00 68 1002.9
20260505164205 28 227 4.8 12.9 0.00 0.00 0.00 70 1003.1
20260505163703 28 211 1.6 8.0 0.00 0.00 0.00 69 1003.0
20260505163201 28 238 4.8 8.0 0.00 0.00 0.00 68 1003.0
20260505162658 28 216 1.6 11.3 0.00 0.00 0.00 69 1002.9
20260505162155 27 201 3.2 8.0 0.00 0.00 0.00 70 1003.0
20260505161652 27 38 3.2 12.9 0.00 0.00 0.00 69 1003.2
20260505161149 28 308 4.8 8.0 0.00 0.00 0.00 70 1002.9
20260505160647 27 277 1.6 8.0 0.00 0.00 0.00 71 1002.7
20260505160144 27 269 6.4 9.7 0.00 0.00 0.00 71 1003.0
20260505153124 26 221 3.2 4.8 0.00 0.00 0.00 75 1002.9
20260505152620 25 270 3.2 4.8 0.00 0.00 0.00 76 1002.6
20260505152116 25 248 3.2 11.3 0.00 0.00 0.00 76 1002.7
20260505151612 25 160 4.8 4.8 0.00 0.00 0.00 76 1002.8
20260505151109 25 245 4.8 12.9 0.00 0.00 0.00 76 1002.6
20260505150605 25 255 4.8 11.3 0.00 0.00 0.00 76 1002.7
20260505140531 23 263 4.8 8.0 0.00 0.00 0.00 82 1002.6
20260505124944 21 290 3.2 4.8 0.00 0.00 0.00 88 1002.5
20260505124441 21 336 4.8 9.7 0.00 0.00 0.00 89 1002.5
20260505123937 21 211 0.0 8.0 0.00 0.00 0.00 89 1002.4
20260505123434 21 215 4.8 4.8 0.00 0.00 0.00 90 1002.1
20260505122929 21 209 3.2 8.0 0.00 0.00 0.00 90 1001.9
20260505122427 21 268 3.2 8.0 0.00 0.00 0.00 90 1002.0
20260505121924 21 292 4.8 8.0 0.00 0.00 0.00 91 1001.9
20260505121421 21 275 1.6 8.0 0.00 0.00 0.00 91 1001.8
20260505120916 21 285 3.2 11.3 0.00 0.00 0.00 91 1001.8
20260505120413 21 262 1.6 4.8 0.00 0.00 0.00 91 1001.7
20260505115912 21 240 0.0 4.8 0.00 0.00 0.00 91 1001.5
20260505115409 21 232 1.6 4.8 0.00 0.00 0.00 91 1001.7
20260505114907 21 298 4.8 9.7 0.00 0.00 0.00 91 1001.6
20260505114403 21 280 3.2 9.7 0.00 0.00 0.00 91 1001.4
20260505113859 20 167 4.8 8.0 0.00 0.00 0.00 92 1001.7
20260505113356 20 41 4.8 4.8 0.00 0.00 0.00 92 1001.5
20260505112852 21 220 1.6 8.0 0.00 0.00 0.00 91 1001.3
20260505112350 21 300 3.2 9.7 0.00 0.00 0.00 91 1001.3
20260505111845 21 245 1.6 4.8 0.00 0.00 0.00 91 1001.4
20260505111341 20 283 3.2 11.3 0.00 0.00 0.00 91 1001.6
20260505110837 20 302 3.2 8.0 0.00 0.00 0.00 91 1001.3
20260505110334 21 261 3.2 8.0 0.00 0.00 0.00 91 1001.3
20260505101809 21 309 8.0 12.9 0.00 0.00 0.00 90 1001.2
20260505101304 21 293 4.8 8.0 0.00 0.00 0.00 90 1001.3
20260505100801 21 181 3.2 11.3 0.00 0.00 0.00 90 1001.4
20260505100257 21 57 4.8 9.7 0.00 0.00 0.00 90 1001.3
20260505095753 21 2 3.2 9.7 0.00 0.00 0.00 89 1001.5
20260505095246 21 252 8.0 11.3 0.00 0.00 0.00 90 1001.4
20260505094740 21 46 3.2 11.3 0.00 0.00 0.00 89 1001.5
20260505094237 21 210 4.8 12.9 0.00 0.00 0.00 89 1001.3
20260505093733 21 176 4.8 16.1 0.00 0.00 0.00 88 1001.2
20260505093231 21 215 6.4 9.7 0.00 0.00 0.00 88 1001.3
20260505092727 21 271 4.8 25.7 0.00 0.00 0.00 88 1001.7
20260505092226 21 271 8.0 11.3 0.00 0.00 0.00 88 1001.3
20260505091723 21 270 4.8 11.3 0.00 0.00 0.00 88 1001.6
20260505091221 21 280 3.2 11.3 0.00 0.00 0.00 87 1001.6
20260505090718 21 325 8.0 9.7 0.00 0.00 0.00 87 1001.9
20260505090216 21 240 4.8 11.3 0.00 0.00 0.00 86 1001.8
20260505085713 22 313 8.0 14.5 0.00 0.00 0.00 86 1001.6
20260505085212 22 230 4.8 12.9 0.00 0.00 0.00 85 1001.8
20260505084709 22 278 4.8 14.5 0.00 0.00 0.00 85 1001.8
20260505084208 22 281 3.2 12.9 0.00 0.00 0.00 85 1001.9
20260505083704 22 325 4.8 12.9 0.00 0.00 0.00 84 1002.0
20260505083201 22 293 4.8 9.7 0.00 0.00 0.00 84 1002.1
20260505082657 22 67 6.4 11.3 0.00 0.00 0.00 84 1002.0
20260505082154 22 212 3.2 22.5 0.00 0.00 0.00 83 1002.0
20260505081649 22 318 6.4 12.9 0.00 0.00 0.00 83 1001.8
20260505081147 22 242 4.8 11.3 0.00 0.00 0.00 82 1001.7
20260505080644 22 346 4.8 4.8 0.00 0.00 0.00 82 1001.8
20260505080140 22 310 3.2 12.9 0.00 0.00 0.00 81 1001.9
20260505075636 22 270 3.2 9.7 0.00 0.00 0.00 81 1001.8
20260505075133 22 351 6.4 16.1 0.00 0.00 0.00 80 1001.7
20260505074630 22 240 8.0 17.7 0.00 0.00 0.00 80 1001.9
20260505074127 22 279 4.8 14.5 0.00 0.00 0.00 79 1002.0
20260505073625 22 264 4.8 9.7 0.00 0.00 0.00 79 1002.0
20260505073123 22 224 4.8 9.7 0.00 0.00 0.00 79 1002.3
20260505072618 22 357 9.7 17.7 0.00 0.00 0.00 78 1002.6
20260505072115 22 306 3.2 16.1 0.00 0.00 0.00 78 1002.6
20260505071610 22 290 4.8 11.3 0.00 0.00 0.00 78 1002.5
20260505071109 22 260 8.0 11.3 0.00 0.00 0.00 77 1002.5
20260505070606 23 223 1.6 8.0 0.00 0.00 0.00 77 1002.6
20260505065558 23 58 4.8 9.7 0.00 0.00 0.00 76 1002.7
20260505065055 23 301 3.2 12.9 0.00 0.00 0.00 76 1003.0
20260505064551 23 295 6.4 12.9 0.00 0.00 0.00 76 1003.2
20260505064050 23 285 4.8 14.5 0.00 0.00 0.00 75 1003.2
20260505063547 23 287 6.4 12.9 0.00 0.00 0.00 75 1003.1
20260505063043 23 71 8.0 11.3 0.00 0.00 0.00 75 1003.2
20260505062539 23 201 8.0 12.9 0.00 0.00 0.00 75 1003.5
20260505062037 23 221 4.8 11.3 0.00 0.00 0.00 74 1003.2
20260505061534 23 262 6.4 9.7 0.00 0.00 0.00 74 1003.3
20260505061032 23 324 3.2 12.9 0.00 0.00 0.00 74 1003.2
20260505060529 23 226 6.4 11.3 0.00 0.00 0.00 74 1003.3
20260505060026 23 316 8.0 11.3 0.00 0.00 0.00 73 1003.3
20260505055521 23 308 1.6 11.3 0.00 0.00 0.00 73 1003.1
20260505055018 23 310 4.8 12.9 0.00 0.00 0.00 73 1003.3
20260505054515 23 246 4.8 9.7 0.00 0.00 0.00 73 1003.3
20260505054013 24 211 1.6 8.0 0.00 0.00 0.00 72 1003.2
20260505053510 24 236 6.4 9.7 0.00 0.00 0.00 72 1003.3
20260505053007 24 237 3.2 8.0 0.00 0.00 0.00 72 1003.2
20260505052504 24 232 4.8 12.9 0.00 0.00 0.00 72 1003.1
20260505052001 24 228 1.6 3.2 0.00 0.00 0.00 72 1003.3
20260505051458 24 277 1.6 4.8 0.00 0.00 0.00 72 1003.2
20260505050956 24 282 4.8 8.0 0.00 0.00 0.00 72 1003.2
20260505050454 24 247 1.6 8.0 0.00 0.00 0.00 72 1003.1
20260505041422 23 189 1.6 11.3 0.00 0.00 0.00 73 1003.8
20260505040919 23 83 1.6 9.7 0.00 0.00 0.00 73 1003.9
20260505040416 23 264 4.8 11.3 0.00 0.00 0.00 73 1003.6
20260505035913 23 230 1.6 9.7 0.00 0.00 0.00 73 1003.6
20260505035409 23 7 4.8 16.1 0.00 0.00 0.00 73 1003.7
20260505034907 23 178 6.4 9.7 0.00 0.00 0.00 73 1003.8
20260505034403 23 41 11.3 14.5 0.00 0.00 0.00 73 1003.6
20260505033900 23 274 3.2 8.0 0.00 0.00 0.00 73 1003.8
20260505033357 23 162 4.8 4.8 0.00 0.00 0.00 73 1003.5
20260505032855 23 354 4.8 11.3 0.00 0.00 0.00 73 1003.6
20260505032352 23 308 4.8 8.0 0.00 0.00 0.00 73 1003.8
20260505031848 23 52 6.4 9.7 0.00 0.00 0.00 72 1003.6
20260505031345 23 279 3.2 11.3 0.00 0.00 0.00 72 1003.7
20260505030843 23 31 4.8 8.0 0.00 0.00 0.00 72 1003.7
20260505030338 24 219 1.6 12.9 0.00 0.00 0.00 72 1003.6